Tracking 17925 objects as of 21-January-2017
HD Live streaming from Space Station
objects crossing your sky now

ARIANE 44L+3 R/B

Track ARIANE 44L+3 R/B now!


NORAD ID: 23866
Int'l Code: 1996-030C
Perigee: 326.0 km
Apogee: 30,743.9 km
Inclination: 4.2 °
Period: 537.8 minutes
Semi major axis: 21905 km
RCS: 20.3809 m2 (large)
Launch date: May 16, 1996
Source: France (FR)
Launch site: FRENCH GUIANA (FRGUI)

Note: This is a ROCKET BODY
Your satellite tracking list
Your tracking list is empty





NASA's NSSDC Master Catalog

Two Line Element Set (TLE):
1 23866U 96030C   17020.73576568  .00000494  00000-0  50604-3 0  9995
2 23866   4.1913 246.6576 6942834 151.8598 276.2586  2.67768957187081
Source of the keplerian elements: AFSPC